LRC651 MGGT-MROC

Flight info

Callsign LRC651
Flight time N/A
Altitude 37000
Route KAPAN2A KAPAN UG436 LIB BARRA3L
Aircraft A20N/M-SDE2E3FGHIRWXY/LB1

Departure

Time N/A
Airport La Aurora International Airport (MGGT)

Arrival

Time 2026-04-28 06:59
Airport Juan Santamaría International Airport (MROC)
Time Latitude Longitude Altitude Speed Heading
2026-04-28 06:50 9.95617 -84.56366 9039 ft 232 kts 122°
2026-04-28 06:50 9.94730 -84.55053 8854 ft 222 kts 122°
2026-04-28 06:50 9.93868 -84.53779 8595 ft 215 kts 122°
2026-04-28 06:50 9.93051 -84.52574 8461 ft 199 kts 122°
2026-04-28 06:51 9.92278 -84.51434 8249 ft 188 kts 121°
2026-04-28 06:51 9.91565 -84.50381 8050 ft 177 kts 121°
2026-04-28 06:51 9.90881 -84.49369 7863 ft 168 kts 121°
2026-04-28 06:51 9.90233 -84.48412 7647 ft 162 kts 120°
2026-04-28 06:52 9.89796 -84.47402 7363 ft 156 kts 95°
2026-04-28 06:52 9.89857 -84.46329 7070 ft 151 kts 71°
2026-04-28 06:52 9.90212 -84.45331 6952 ft 152 kts 68°
2026-04-28 06:52 9.90599 -84.44327 6846 ft 152 kts 68°
2026-04-28 06:53 9.90986 -84.43317 6740 ft 152 kts 68°
2026-04-28 06:53 9.91363 -84.42316 6644 ft 152 kts 68°
2026-04-28 06:53 9.91738 -84.41316 6548 ft 151 kts 68°
2026-04-28 06:53 9.92108 -84.40321 6396 ft 151 kts 68°
2026-04-28 06:54 9.92482 -84.39315 6188 ft 150 kts 68°
2026-04-28 06:54 9.92850 -84.38332 6110 ft 150 kts 68°
2026-04-28 06:54 9.93221 -84.37345 6038 ft 150 kts 68°
2026-04-28 06:54 9.93595 -84.36348 5953 ft 150 kts 68°
2026-04-28 06:55 9.93967 -84.35358 5848 ft 149 kts 68°
2026-04-28 06:55 9.94334 -84.34376 5619 ft 151 kts 68°
2026-04-28 06:55 9.94705 -84.33388 5397 ft 148 kts 68°
2026-04-28 06:55 9.95070 -84.32415 5204 ft 149 kts 68°
2026-04-28 06:56 9.95439 -84.31428 5023 ft 147 kts 69°
2026-04-28 06:56 9.95801 -84.30460 4813 ft 147 kts 69°
2026-04-28 06:56 9.96164 -84.29489 4607 ft 147 kts 69°
2026-04-28 06:56 9.96528 -84.28516 4408 ft 146 kts 69°
2026-04-28 06:57 9.96886 -84.27557 4215 ft 146 kts 69°
2026-04-28 06:57 9.97247 -84.26592 4021 ft 145 kts 69°
2026-04-28 06:57 9.97605 -84.25633 3832 ft 145 kts 69°
2026-04-28 06:57 9.97961 -84.24678 3642 ft 144 kts 69°
2026-04-28 06:58 9.98316 -84.23728 3455 ft 144 kts 69°
2026-04-28 06:58 9.98676 -84.22778 3260 ft 143 kts 69°
2026-04-28 06:58 9.99031 -84.21843 3101 ft 137 kts 71°
2026-04-28 06:58 9.99333 -84.21034 3095 ft 101 kts 70°
2026-04-28 06:59 9.99525 -84.20520 3096 ft 61 kts 69°
2026-04-28 06:59 9.99632 -84.20234 3096 ft 27 kts 70°
2026-04-28 06:59 9.99690 -84.20126 3097 ft 9 kts 22°
2026-04-28 06:59 9.99741 -84.20129 3097 ft 5 kts 342°
2026-04-28 07:00 9.99776 -84.20112 3097 ft 6 kts 60°
2026-04-28 07:00 9.99806 -84.20096 3097 ft 5 kts 349°
2026-04-28 07:00 9.99836 -84.20106 3097 ft 2 kts 338°
2026-04-28 07:00 9.99844 -84.20110 3097 ft 1 kts 338°
2026-04-28 07:01 9.99846 -84.20111 3097 ft 0 kts 338°